Regional Weather Roundup
Issued by NWS Green Bay, WI

Home | Current Version | Previous Version | Graphics & Text | Print | Product List | Glossary Off
Versions: 1 2 3 4 5 6 7 8 9 10 11 12 13 14 15 16 17 18 19 20 21 22 23 24 25 26 27 28 29 30 31 32 33 34 35 36 37 38 39 40 41 42 43 44 45 46 47 48 49 50

000
ASUS43 KGRB 262311
RWRGRB

NORTH-CENTRAL AND NORTHEAST WISCONSIN REGIONAL WEATHER ROUNDUP
NATIONAL WEATHER SERVICE GREEN BAY WI
600 PM CDT MON SEP 26 2016

WIZ005-009-010>012-018-019-270000-
NORTH CENTRAL WISCONSIN

CITY           SKY/WX    TMP DP  RH WIND       PRES   REMARKS
IRONWOOD       LGT RAIN  49  46  90 W15       29.71S
MANITOWISH WTR LGT RAIN  47  47 100 W15       29.73S
ARBOR VITAE    DRIZZLE   52  47  84 W13       29.74S
EAGLE RIVER    DRIZZLE   48  44  85 W13G21    29.73S
LAND O LAKES   DRIZZLE   48  46  92 W13G22    29.73S
RHINELANDER    CLOUDY    50  46  86 W12       29.76F
PHILLIPS       CLOUDY    53  41  63 W9        29.77S
ANTIGO         CLOUDY    51  42  72 W13G20    29.79F
TOMAHAWK       CLOUDY    50  43  76 W5        29.78F
MERRILL        CLOUDY    54  43  66 W10G20    29.80S
$$

WIZ013-073-270000-
NORTHEAST WISCONSIN

CITY           SKY/WX    TMP DP  RH WIND       PRES   REMARKS
IRON MOUNTAIN  LGT RAIN  51  43  74 W15G24    29.70R
MARINETTE      CLOUDY    57  43  59 W9G20     29.76R
OCONTO         CLOUDY    57  41  55 W13G23    29.78R
$$

WIZ017-030-035>037-045-270000-
CENTRAL WISCONSIN

CITY           SKY/WX    TMP DP  RH WIND       PRES   REMARKS
MEDFORD        CLOUDY    55  40  55 W13G22    29.80S
WAUSAU         CLOUDY    56  39  53 W17G23    29.79S
MOSINEE        MOCLDY    55  39  54 W17G23    29.83R
MARSHFIELD     PTCLDY    58  38  47 W15       29.83R
WISC RAPIDS    PTCLDY    60  39  45 W13G25    29.86R
STEVENS POINT  CLOUDY    57  38  48 W12G24    29.83S
WAUPACA        CLOUDY    62  38  41 W15G21    29.83S
SHAWANO        CLOUDY    59  41  50 W10G17    29.80S
CLINTONVILLE   NOT AVBL
WAUTOMA        CLOUDY    61  39  44 W17       29.85R
$$

WIZ038-039-048-051-270000-
FOX VALLEY

CITY           SKY/WX    TMP DP  RH WIND       PRES   REMARKS
NWS GREEN BAY  CLOUDY    60  41  49 W18G26    29.80R
APPLETON       MOCLDY    59  34  38 W18G29    29.81R
OSHKOSH        MOCLDY    61  38  42 W15G22    29.82R
FOND DU LAC    PTCLDY    62  38  40 W13G21    29.84R
$$

WIZ022-050-052-270000-
EAST CENTRAL WISCONSIN

CITY           SKY/WX    TMP DP  RH WIND       PRES   REMARKS
EPHRAIM        CLOUDY    57  43  58 W18G31    29.73S
WASHINGTON ISL CLOUDY    58  43  58 W21G30    29.72R
STURGEON BAY   LGT RAIN  58  42  55 W21G30    29.77R
MANITOWOC      MOCLDY    62  38  40 W13G26    29.81R
SHEBOYGAN      PTCLDY    62  36  37 W15G25    29.83R
$$

LMZ563-521-522-541>543-270000-
LAKESHORE

STATION/POSITION TIME  TEMP    WIND        PRES    VSBY  WAVE
                       AIR SEA DIR/SP/G                  HT/PER
                 (UTC) (F)     (DEG/KT/KT) (MB)    (MI)  (FT/S)
SHEBOYGAN LKSHOR 2300   63     270/ 13/ 16 1009.6R
KEWAUNEE LKSHORE 2200   62     260/ 15/ 23 1007.8S
NORTHPORT PIER   2200   60     240/  7/ 15 1006.4S
N MID LAKE BUOY  2250   61 67  240/ 29/ 35 1004.6F         7/ 6
CHAMBERS ISLAND  2240   58     220/ 13/ 25 1006.8R
MENOMINEE LKSHOR 2200   60     250/ 13/ 20 1006.3R
$$




USA.gov is the U.S. government's official web portal to all federal, state and local government web resources and services.